Wind_Gust
9 11 10 10 9 10 10 9 10 9 8 9 9 9 7 6 7 8 3 6 4 5 6 7 6 5 6 5 4 6 7 8 7 5 6 7 7 6 7 9 9 11 10 12 10 9 10 10 13 12 10 11 11 12 11 10 12 13 14 14 15 15 16 16 20 21 15 9 9 11 8 7 13 8 9 9 8 10 11 14 14 14 15 16 16
12 12 10 11 10 9 9 8 10 10 10 9 10 9 8 8 7 4 6 8 4 6 7 7 5 6 6 7 7 7 8 8 8 7 8 8 8 7 8 8 9 11 11 12 13 11 9 10 13 13 11 11 12 13 11 11 12 12 12 13 14 14 15 19 17 18 22 9 11 8 11 8 14 7 11 10 10 7 11 11 13 14 14 13 13
12 11 11 10 10 9 9 9 10 10 11 10 9 10 9 8 5 6 7 8 5 6 7 8 8 6 7 8 8 7 8 8 7 6 8 8 9 9 7 6 7 9 12 14 14 12 12 10 12 13 11 11 11 11 10 10 11 12 13 12 13 13 14 15 18 17 16 17 10 13 11 12 15 12 10 11 12 11 11 12 12 13 14 15 15
10 9 9 9 9 8 9 9 10 11 11 11 11 9 9 8 6 7 8 7 7 6 6 8 8 7 7 8 8 8 8 8 7 7 8 8 8 9 8 8 8 9 10 12 14 14 13 13 13 12 12 13 12 11 10 11 10 10 12 12 13 14 15 15 16 17 15 18 12 15 10 11 15 10 13 12 15 17 14 12 13 14 12 13 14
9 10 10 10 8 10 9 9 10 11 12 10 11 10 9 9 7 8 7 8 8 6 7 6 7 8 9 9 9 9 8 8 8 8 7 7 8 8 7 8 9 10 10 11 13 13 14 15 14 13 13 14 12 10 9 10 9 10 11 11 12 12 13 14 15 15 16 16 14 11 8 10 10 9 10 11 11 13 11 14 14 14 13 11 12
9 10 10 10 10 10 10 9 11 12 12 10 11 11 10 9 9 7 7 9 7 6 7 7 7 9 9 10 9 9 8 8 8 8 9 7 7 7 7 8 9 10 11 11 12 13 14 16 16 14 14 14 13 12 11 11 10 10 12 13 13 12 12 14 14 13 14 15 14 18 10 15 12 12 11 9 12 13 12 14 12 14 14 14 16
10 10 10 10 10 10 10 11 12 10 11 12 10 8 9 9 8 9 8 8 7 7 7 8 8 8 10 9 9 9 9 8 8 8 9 8 7 8 9 9 9 10 10 11 12 13 14 14 15 15 14 14 12 14 13 12 10 11 13 13 12 12 13 14 14 15 15 16 15 14 16 11 12 15 9 10 11 13 15 16 17 12 12 13 14
9 9 9 9 10 10 11 10 9 10 10 10 9 9 8 8 9 8 5 7 8 8 9 8 8 6 8 8 9 8 8 9 9 9 9 8 8 8 8 9 10 11 11 12 11 12 13 14 14 14 14 14 15 14 13 12 10 13 13 12 12 12 12 12 12 14 15 15 15 15 13 12 7 8 6 8 11 14 15 16 17 15 12 12 13
8 9 9 10 11 11 9 6 7 9 10 9 8 9 9 9 7 6 6 8 8 8 7 6 7 9 8 8 9 8 8 9 8 9 9 9 8 9 9 10 11 12 12 13 13 12 12 12 13 14 16 17 17 12 8 9 10 12 12 10 11 11 11 12 13 14 12 15 18 14 14 11 11 10 10 13 17 17 10 11 15 13 11 12 11
10 8 9 10 9 8 6 5 6 8 8 9 11 10 10 9 7 7 8 9 8 6 6 5 6 8 9 9 8 8 8 8 9 11 9 9 9 8 9 10 9 10 12 14 15 13 12 12 14 19 18 17 11 6 7 9 11 13 12 9 10 13 12 12 13 14 14 16 14 11 10 11 11 11 11 12 10 6 6 10 15 12 12 13 13
5 7 7 8 7 4 5 7 7 9 11 10 8 8 9 8 7 7 8 8 8 7 6 6 8 8 8 8 9 9 9 9 10 11 12 13 7 8 8 11 10 10 10 11 14 16 15 12 13 15 15 13 11 7 7 8 5 7 7 9 9 9 10 11 11 11 14 16 15 14 13 12 12 10 10 11 8 11 11 10 12 8 11 13 17
6 7 7 4 4 5 7 7 8 9 8 9 9 8 8 7 8 8 8 9 10 7 6 8 8 8 8 8 8 10 10 10 12 12 13 12 8 8 8 9 11 11 10 11 13 13 14 14 12 12 11 12 10 10 10 7 6 8 9 7 7 11 10 9 10 11 10 12 12 12 11 12 6 5 5 5 7 9 10 9 11 12 13 15 15
5 5 5 5 7 7 7 8 9 7 9 9 9 9 10 8 8 8 12 12 6 7 10 7 9 8 7 9 10 10 9 10 12 13 13 12 10 9 9 9 10 11 11 11 12 14 13 14 13 11 10 14 11 9 9 10 6 8 12 10 9 11 9 12 11 10 11 11 11 8 6 4 6 5 5 6 7 8 7 10 11 12 11 11 14
5 6 5 6 6 6 7 7 8 9 8 8 8 9 9 11 10 9 8 6 8 9 8 9 9 9 10 9 10 9 10 10 12 13 13 14 11 6 8 10 10 11 11 12 12 12 11 12 13 12 10 9 9 10 10 10 10 9 10 12 9 13 10 10 11 10 9 9 9 8 5 4 6 5 7 5 7 10 11 12 10 11 14 16 6
6 6 7 7 5 6 7 7 9 9 8 8 8 9 10 9 8 10 10 11 11 12 12 10 10 9 10 9 8 9 11 10 11 12 13 15 9 7 9 9 10 10 11 10 11 12 11 10 11 11 9 8 8 9 9 10 11 11 10 8 10 10 8 8 8 10 9 8 7 6 5 5 6 8 9 7 10 11 10 10 9 9 9 6 7
8 6 7 8 8 8 8 8 9 7 8 7 8 9 9 10 12 9 8 9 8 6 8 6 10 11 11 9 7 10 12 13 12 14 15 12 7 8 8 9 9 10 11 11 11 11 11 10 10 9 7 7 8 9 9 10 10 12 11 10 9 9 10 10 6 7 11 13 9 9 8 6 6 8 9 9 10 11 12 11 10 10 10 9 9
8 8 9 9 9 8 9 9 9 8 8 9 10 10 10 10 10 7 8 9 9 9 11 11 10 9 10 9 8 10 12 14 13 14 14 10 5 9 8 9 9 10 11 11 11 11 10 9 10 9 7 8 8 11 12 10 10 11 12 11 8 7 7 6 6 8 8 9 8 7 7 7 8 7 8 7 9 10 8 8 8 6 8 8 5
10 9 10 11 11 9 9 10 10 9 8 11 12 12 10 7 10 9 12 11 11 13 11 10 9 9 9 11 10 9 12 13 14 15 15 11 9 10 8 8 10 10 12 11 11 11 11 14 13 8 8 9 8 12 13 10 10 11 12 12 10 9 8 8 8 10 8 8 8 7 8 9 7 8 12 12 12 9 10 9 6 7 8 9 8
11 13 14 13 10 9 9 9 10 9 11 13 12 11 12 14 10 8 11 9 11 9 6 9 10 9 9 9 13 12 10 12 14 15 14 12 9 8 8 7 9 11 10 13 12 11 10 9 12 9 8 8 10 11 11 11 10 11 11 11 12 12 10 8 9 9 7 6 9 9 10 12 14 10 10 12 12 10 8 6 6 9 9 8 14
14 11 10 10 9 9 8 10 10 11 14 12 10 13 10 6 10 10 10 11 11 9 7 7 9 11 8 7 9 8 10 13 14 15 15 11 10 8 6 7 9 10 9 11 13 14 11 8 7 7 9 10 10 11 11 8 9 11 12 12 13 14 8 9 8 9 8 8 6 6 8 9 8 8 10 12 12 11 10 9 8 9 10 9 9
10 10 11 9 9 10 9 10 13 13 13 13 11 8 9 12 9 9 11 9 7 8 9 8 8 10 9 7 8 11 10 12 16 14 12 10 9 9 9 9 8 8 10 12 11 12 13 11 7 6 10 10 10 11 11 10 10 11 12 14 14 8 8 8 7 11 8 6 7 7 8 8 9 9 11 11 12 11 11 11 11 9 9 10 10
9 8 9 11 10 10 10 10 10 12 10 7 8 11 10 9 10 10 9 9 9 10 8 7 7 10 10 9 8 12 13 13 12 13 11 9 9 10 9 10 8 8 10 11 11 10 10 10 9 8 9 10 11 12 12 12 11 12 13 12 10 10 11 8 8 8 8 7 7 8 8 10 10 11 11 11 11 10 11 12 12 12 12 10 8
9 9 10 10 11 11 11 10 12 9 9 10 10 12 9 9 8 8 9 8 9 9 9 8 7 10 10 12 10 11 11 10 9 11 10 10 9 11 11 8 7 8 9 11 11 12 11 10 11 12 9 10 12 13 13 13 10 10 12 12 11 12 8 8 8 8 7 7 8 9 8 8 10 11 10 10 9 9 11 10 11 12 14 15 14
8 9 10 11 11 11 10 11 11 9 10 10 9 10 10 10 9 10 9 10 10 10 10 9 7 9 11 14 14 12 9 8 8 9 9 9 11 11 11 11 8 9 8 11 11 11 12 11 10 11 12 12 13 13 13 11 11 11 14 14 12 9 10 10 8 8 8 8 10 8 8 6 9 10 9 8 9 9 11 10 12 11 13 14 14
7 9 11 11 11 12 9 9 10 10 10 11 11 11 9 8 11 9 8 9 9 10 11 9 9 11 10 12 13 13 13 9 10 8 8 8 9 10 9 9 9 7 8 9 8 10 9 11 12 12 12 14 15 13 9 8 10 10 12 13 12 9 10 9 8 7 9 9 9 7 7 5 5 5 5 5 5 6 10 10 10 10 11 15 16
7 10 11 10 12 10 9 9 8 10 10 11 13 13 14 12 13 11 10 11 10 10 12 10 10 9 11 11 13 14 13 10 11 9 7 7 8 9 10 10 10 9 10 10 9 11 12 13 14 13 12 12 12 9 7 8 6 10 9 7 8 8 8 9 7 8 8 8 8 9 7 5 7 5 6 6 11 10 7 8 12 13 12 14 20
8 8 10 11 9 7 10 11 11 9 8 10 10 10 10 12 12 11 12 12 11 12 11 10 10 10 12 13 13 13 13 12 11 10 9 9 10 9 9 10 9 7 9 10 9 11 13 12 10 9 9 12 11 5 4 4 5 4 8 9 9 8 7 8 9 9 9 10 9 8 6 6 5 8 9 10 11 10 8 9 13 10 12 13 20
9 10 11 11 11 10 11 10 13 11 12 12 12 10 10 10 12 15 16 15 14 13 13 13 14 13 13 14 12 12 13 13 12 11 12 10 11 11 10 9 9 10 10 10 9 10 10 6 7 6 7 6 7 4 4 3 5 5 5 5 7 7 8 8 8 8 7 8 8 8 7 9 10 8 9 11 10 10 8 9 8 9 9 10 20
7 8 9 6 10 10 11 10 11 12 11 11 12 15 16 15 16 15 12 13 18 17 16 15 13 17 16 14 12 13 13 14 17 11 14 10 13 10 10 12 11 9 10 6 6 7 7 7 7 8 8 7 8 7 6 5 4 5 4 5 7 8 8 8 9 9 9 8 8 8 9 9 8 7 9 12 10 9 8 12 10 14 11 16 19
5 8 8 8 10 9 9 11 10 11 11 13 13 13 8 11 11 14 14 12 18 17 10 17 18 14 12 16 14 16 17 17 11 14 14 12 12 11 11 10 9 8 6 5 5 6 7 7 7 7 6 6 7 7 7 6 6 7 6 4 8 9 9 7 9 9 7 8 8 8 8 9 8 8 9 10 9 11 10 8 9 9 14 14 17
7 9 7 8 11 11 10 10 11 11 12 11 11 12 13 10 11 14 13 11 13 16 14 14 12 12 14 17 13 15 18 16 11 13 14 14 14 13 13 13 12 10 6 6 5 7 7 7 9 6 6 5 5 7 8 8 8 4 5 6 6 9 8 9 8 9 9 8 8 7 8 9 9 8 11 10 11 10 11 10 12 13 13 13 17
10 11 10 9 10 9 10 10 10 10 11 10 10 11 11 12 15 9 14 14 14 13 12 12 13 13 15 16 14 13 13 14 15 14 14 14 14 14 13 13 10 7 8 8 6 9 7 8 8 8 6 6 7 6 8 8 9 7 6 7 8 9 11 9 9 10 9 9 8 7 8 9 9 9 11 11 12 10 10 11 12 14 13 13 13
10 10 10 9 9 7 9 9 10 10 11 11 11 10 12 12 14 18 8 8 10 11 12 13 14 15 15 16 17 16 15 9 12 13 13 11 11 12 11 9 7 7 9 8 9 9 8 8 9 9 7 8 8 6 8 9 9 8 7 8 8 8 8 7 8 10 9 10 10 8 9 10 10 10 9 10 13 11 10 12 10 12 13 16 12
12 11 11 11 9 9 9 10 10 12 12 12 12 12 13 13 14 13 14 15 10 9 11 15 14 13 14 15 15 16 17 17 13 10 9 9 10 9 7 6 6 9 9 11 9 11 8 9 9 9 9 8 9 7 8 8 8 9 7 8 7 7 7 7 9 9 8 9 10 9 9 9 10 13 11 11 10 11 12 10 12 13 11 12 13
11 10 10 8 10 9 9 9 10 11 10 11 12 11 13 13 12 12 13 14 14 15 16 15 11 13 17 12 13 15 14 13 13 12 10 9 9 7 8 7 6 6 7 7 8 9 10 10 11 11 9 10 10 9 9 8 8 8 9 8 7 7 8 9 10 9 10 9 9 9 9 11 10 11 15 14 12 12 11 11 10 13 14 11 12
12 11 11 11 10 8 9 10 10 10 11 12 12 13 12 11 12 14 12 12 12 13 14 14 8 7 13 13 12 11 12 12 11 11 11 9 9 11 8 10 9 11 10 9 10 10 10 10 10 12 10 10 9 10 10 9 9 10 9 10 10 10 10 9 9 9 8 10 10 10 9 9 10 11 10 12 13 14 11 12 11 10 12 11 10
12 11 10 11 10 10 9 8 8 10 8 9 8 9 10 10 10 10 9 11 12 12 14 14 12 12 6 9 10 11 11 8 8 7 8 9 11 12 12 12 13 11 10 12 11 10 10 12 11 11 11 11 11 10 10 11 10 10 9 11 11 11 11 11 11 9 12 10 10 11 11 12 11 11 15 14 10 10 11 11 11 11 11 12 9
12 13 12 11 9 10 7 9 10 7 9 8 8 9 9 10 11 10 10 12 13 12 12 11 7 11 14 15 13 12 9 4 5 3 4 6 8 10 13 12 12 13 15 13 11 10 12 12 10 11 12 10 11 11 12 12 11 11 12 11 12 13 9 10 9 10 11 12 12 11 10 11 11 11 11 16 14 12 11 12 13 12 9 9 10
10 11 12 12 9 12 12 10 9 9 9 8 8 8 10 11 10 9 11 12 12 11 11 11 11 13 16 12 13 11 10 6 10 14 13 12 11 11 11 12 12 14 14 13 11 11 12 13 11 10 10 11 11 13 14 14 12 11 11 11 10 10 11 11 11 11 11 12 11 11 12 12 11 11 12 14 13 13 14 12 13 15 14 10 9
13 11 11 11 9 11 11 11 11 10 9 9 10 10 9 10 11 13 12 11 12 13 11 11 13 16 14 11 12 13 14 15 15 15 13 13 14 13 12 14 15 17 16 15 13 13 12 13 12 10 11 11 11 13 12 14 14 12 11 12 13 12 12 12 13 13 13 12 12 11 11 12 12 11 10 12 15 15 16 15 13 11 12 13 10
13 13 9 10 12 12 10 9 10 11 9 10 10 9 11 13 13 12 11 11 12 12 12 13 15 15 15 20 17 19 18 17 16 16 16 17 15 14 15 16 16 15 15 14 14 12 13 13 12 11 11 12 11 11 13 12 12 11 12 11 11 11 11 10 11 12 12 12 12 12 11 11 12 14 13 10 9 12 12 13 12 11 12 12 13
13 12 12 11 12 11 12 12 11 9 9 8 9 10 10 12 12 11 12 12 12 11 12 13 14 13 15 20 20 24 18 16 15 15 16 15 14 16 15 15 16 16 16 16 16 14 14 14 13 12 12 12 11 10 11 11 12 13 12 11 11 11 11 11 11 12 13 13 12 13 12 13 14 12 14 11 13 11 12 12 12 12 13 13 12
13 13 14 11 12 14 15 15 12 10 10 10 11 8 10 11 11 12 12 12 12 11 11 13 14 11 14 17 23 20 17 15 10 16 15 16 17 17 17 19 18 18 17 15 14 14 14 14 14 13 14 14 13 15 17 17 15 14 14 13 13 13 14 11 10 11 12 12 13 12 13 12 12 12 12 12 12 13 13 14 12 12 12 13 13
12 12 11 11 13 13 12 11 11 12 12 11 10 10 10 9 10 10 11 11 12 12 13 14 13 12 13 14 13 13 16 16 15 17 20 18 16 17 19 17 15 13 14 15 14 12 12 13 13 13 12 12 12 12 15 16 17 16 16 16 14 14 14 14 14 15 15 14 13 13 12 12 12 12 12 13 14 14 12 12 12 13 12 12 12
11 12 12 12 11 12 14 12 12 12 10 8 9 10 10 9 10 10 10 12 13 12 12 13 12 12 11 11 14 18 19 18 17 17 17 16 18 19 16 15 14 14 14 14 13 12 12 14 13 12 12 12 11 13 14 14 15 17 17 19 18 17 17 18 20 18 17 16 16 14 13 13 13 12 13 14 14 15 15 14 14 10 11 11 12
14 12 13 13 12 12 12 12 11 11 11 11 11 10 11 10 9 9 10 12 12 13 12 12 11 11 11 11 13 15 16 15 17 18 17 15 16 17 16 15 13 14 14 15 12 13 14 14 13 13 14 13 13 14 14 14 15 15 15 16 20 22 21 19 15 15 16 17 17 17 16 14 14 14 15 17 14 14 15 14 13 15 16 16 14
12 12 13 12 14 15 14 12 10 12 11 11 10 10 11 11 10 8 9 11 12 11 12 12 11 10 10 12 13 14 15 14 15 15 16 17 17 17 16 15 14 15 16 14 12 13 13 13 13 13 14 13 14 16 16 16 15 15 15 15 15 16 14 14 17 19 19 18 18 16 16 17 16 15 17 15 13 13 14 16 17 16 14 15 15
14 13 13 13 13 13 12 11 12 10 11 11 11 10 10 10 9 9 9 10 11 10 11 10 10 10 11 13 13 10 11 13 14 14 13 13 14 15 15 16 16 17 15 14 12 13 13 13 13 13 14 13 14 16 17 17 17 17 17 18 17 18 19 17 17 17 17 17 16 18 19 18 16 15 15 16 16 15 15 14 13 12 13 13 12
14 15 14 13 14 15 14 14 12 13 13 11 10 10 10 9 9 9 9 10 11 10 9 10 11 11 10 12 9 11 14 12 13 13 14 15 15 15 17 17 16 15 14 15 15 13 13 14 14 14 15 14 16 18 19 18 18 17 17 16 18 20 20 22 19 22 19 20 17 16 16 17 18 18 16 17 17 16 17 14 15 15 13 11 12
14 15 15 15 15 14 12 11 12 11 9 9 10 10 9 8 9 9 9 9 9 10 9 9 9 10 10 11 9 13 12 12 13 13 14 14 15 16 16 15 14 15 14 15 16 15 13 13 12 13 14 14 16 17 18 19 19 20 18 20 19 22 22 24 23 22 23 18 20 19 19 18 17 17 17 18 16 17 16 15 14 13 13 14 13
13 14 14 15 15 12 11 11 10 10 9 10 10 10 10 9 9 9 9 9 8 10 9 9 8 8 8 10 9 11 12 12 12 12 13 13 15 16 16 16 15 13 13 14 14 14 13 13 13 14 14 15 16 18 18 19 19 20 19 21 22 23 25 24 25 21 26 19 20 19 17 18 17 17 15 14 14 15 17 16 14 14 15 14 12
Wind_Speed
4 5 3 4 4 6 6 6 7 5 6 6 6 6 5 4 4 5 2 4 3 3 4 5 5 4 4 4 3 4 5 5 4 3 2 4 4 3 4 4 5 5 4 6 4 4 4 5 7 7 6 6 6 6 5 5 5 5 6 7 6 5 5 7 8 9 6 4 4 4 3 3 6 4 4 3 3 3 5 6 6 6 6 6 6
5 5 3 4 6 6 6 5 6 6 7 6 6 6 5 5 5 2 4 5 3 4 5 5 4 4 4 5 5 5 5 5 5 4 5 5 5 3 3 4 5 6 5 7 6 3 4 5 7 7 6 6 6 7 6 5 5 4 5 5 6 6 5 7 7 8 10 5 5 3 4 4 7 3 5 5 4 3 4 5 6 7 7 6 7
3 4 4 5 6 6 5 6 6 7 7 6 6 6 6 5 4 4 5 5 4 4 5 5 5 5 5 5 5 5 5 5 4 3 5 5 5 5 4 3 4 5 6 7 7 5 5 5 6 7 5 6 7 6 5 5 5 6 6 5 6 6 7 7 7 7 8 8 5 6 5 5 7 6 5 4 4 3 5 6 6 6 7 9 9
5 5 5 6 6 5 6 5 6 7 7 7 7 6 6 5 4 5 5 5 5 4 4 6 5 5 5 5 5 5 5 5 5 4 5 5 5 5 5 5 5 5 6 7 6 6 6 7 7 7 7 7 7 5 5 5 5 4 5 6 4 6 7 6 7 7 6 8 6 6 5 5 5 5 4 4 4 4 5 6 7 7 7 7 8
5 6 6 6 5 6 6 6 7 7 8 6 7 6 6 6 4 5 5 5 5 4 4 4 5 5 5 6 6 6 5 5 5 5 4 4 5 5 4 4 5 5 6 7 7 7 7 8 9 8 7 8 7 5 5 6 5 4 5 6 5 5 5 5 6 7 9 8 6 5 3 4 4 3 3 3 3 4 6 7 7 7 7 6 7
4 4 5 5 5 6 6 6 7 8 8 7 7 7 6 6 6 5 5 6 5 4 5 4 4 6 6 6 6 6 5 5 5 5 5 5 4 4 4 4 4 5 6 6 6 6 7 9 10 8 8 7 7 5 5 6 6 5 6 7 6 5 6 7 7 7 6 6 6 7 5 7 6 5 3 4 6 6 6 6 6 7 7 7 8
3 4 4 5 4 5 6 7 7 7 7 8 6 5 6 6 6 6 5 5 5 5 5 5 5 5 6 6 6 6 6 5 5 5 5 5 4 5 4 4 5 5 5 6 6 7 7 8 9 9 8 8 7 7 7 7 5 7 7 7 6 6 5 6 7 7 6 8 7 6 8 5 6 8 4 4 6 7 8 8 8 6 6 6 7
3 3 3 4 5 5 5 5 5 6 5 4 5 5 5 5 6 5 3 5 5 6 6 5 5 4 5 5 6 5 5 6 6 6 5 5 5 5 4 4 4 5 6 7 6 6 6 7 8 8 8 7 8 8 7 6 5 7 7 6 6 6 5 5 5 6 6 7 7 8 7 5 3 4 1 3 6 7 7 7 8 8 6 6 6
0 2 2 3 4 3 3 3 3 3 4 4 5 6 6 6 5 4 4 5 5 5 5 5 5 6 6 5 5 4 4 5 5 5 5 6 5 5 4 4 3 4 5 7 7 6 5 6 7 8 9 11 12 8 6 6 5 6 6 5 6 5 5 5 6 6 6 6 7 7 8 6 6 5 5 6 8 8 4 5 7 6 5 6 5
1 1 2 3 2 2 3 3 3 3 4 6 7 6 6 6 5 5 6 6 5 4 5 4 4 5 6 6 5 4 5 4 5 9 7 5 6 4 4 4 3 4 4 6 7 7 5 6 7 13 14 10 7 4 5 6 7 6 5 4 4 5 5 5 6 6 7 8 8 6 5 5 5 6 5 6 5 4 4 5 7 6 6 7 6
1 2 3 3 2 2 3 3 4 5 6 5 5 5 6 5 5 5 5 6 6 5 4 5 5 5 5 5 6 5 5 5 8 10 11 11 5 5 5 5 4 4 4 5 6 7 7 7 7 9 10 9 6 4 5 4 3 4 4 3 3 4 5 5 5 5 6 8 8 6 6 7 7 5 5 6 4 5 4 4 5 4 4 5 8
2 3 3 2 3 4 4 3 5 5 4 6 6 5 4 4 5 5 5 6 6 4 4 5 6 5 5 5 6 6 6 8 10 10 11 10 6 5 4 3 3 4 5 6 6 5 6 6 6 6 5 7 6 5 7 5 4 5 5 6 5 3 4 4 5 5 5 6 6 6 6 6 3 1 1 2 2 3 4 5 6 5 5 6 5
3 3 3 3 4 4 3 5 5 5 6 6 4 4 4 5 5 5 8 7 4 5 6 5 6 5 5 6 7 6 6 8 9 11 11 11 9 4 3 3 3 4 5 6 6 6 5 6 7 6 4 8 5 4 5 5 3 6 7 5 5 7 5 5 6 4 5 6 5 3 2 1 1 1 2 2 2 4 4 4 3 4 5 5 5
3 4 3 4 4 4 4 4 5 6 5 4 4 5 5 7 7 6 5 3 5 6 5 6 6 6 6 6 6 6 6 8 10 10 11 12 7 1 3 4 4 4 5 5 5 6 6 6 6 6 5 4 5 5 5 6 5 4 4 3 3 5 5 6 6 6 4 4 4 3 1 1 1 1 2 1 3 5 5 6 5 6 6 6 3
4 4 4 5 3 4 5 5 6 6 5 4 4 5 6 6 5 6 6 7 7 7 7 7 6 6 6 6 5 6 6 9 10 10 11 11 6 4 3 3 3 4 5 5 6 7 6 5 6 6 5 3 4 4 4 5 5 6 6 4 3 4 4 3 3 3 3 1 2 1 1 1 1 1 2 3 5 6 5 5 5 4 4 1 2
5 4 5 5 5 5 5 5 6 5 5 4 5 6 6 6 7 5 5 6 5 3 5 4 6 7 7 6 5 6 7 10 10 10 11 11 5 4 3 3 4 4 5 6 6 5 6 6 6 5 4 3 3 4 5 4 5 5 6 6 4 3 2 2 4 3 4 2 1 2 1 2 2 1 2 3 4 5 5 5 5 5 4 4 4
6 5 5 6 6 6 6 6 6 5 5 5 6 6 6 7 7 4 5 6 6 6 7 6 6 5 6 6 6 6 7 10 11 10 11 9 3 4 3 3 4 4 5 6 5 6 5 5 5 5 4 4 3 4 5 5 5 6 7 6 4 2 3 2 3 1 3 4 5 4 2 1 1 3 5 5 5 4 3 3 3 2 2 4 1
7 5 7 7 7 6 6 6 6 6 5 7 8 7 6 4 6 5 7 7 7 8 7 6 6 5 6 7 6 6 7 9 11 11 11 9 5 5 4 3 5 4 5 6 5 5 6 11 9 4 4 5 4 5 4 4 4 6 6 7 6 5 4 4 2 2 2 3 5 4 4 6 5 5 3 6 5 4 5 5 2 2 3 4 3
7 8 9 8 6 6 5 6 6 6 7 8 7 7 7 8 5 5 6 6 7 6 4 5 6 5 6 6 7 7 6 8 11 12 12 11 5 4 3 3 4 5 4 6 6 5 5 5 9 7 4 4 7 6 3 3 4 5 6 6 6 7 5 4 4 3 2 1 1 2 3 4 5 5 3 6 4 3 1 3 2 4 4 4 4
9 6 6 5 5 5 5 6 6 7 9 8 6 8 6 3 6 6 6 6 6 6 5 5 6 6 5 3 5 5 6 8 10 13 11 9 4 4 3 3 5 5 4 4 5 6 5 4 4 4 4 6 8 7 5 3 4 5 5 6 7 8 2 4 3 2 1 2 1 1 1 4 4 2 2 2 3 4 3 2 1 4 4 3 4
5 6 5 5 6 6 5 7 8 8 8 8 6 5 5 7 5 6 6 5 5 5 6 5 5 6 6 5 5 7 6 7 10 12 10 7 6 7 4 5 4 3 4 5 4 5 6 5 3 3 6 7 8 7 7 6 6 5 6 6 8 2 4 4 3 2 1 1 1 1 2 3 2 2 2 3 3 3 3 4 3 2 2 4 4
5 4 5 6 6 6 6 6 6 7 6 5 5 7 6 5 6 6 5 5 6 6 5 5 5 6 6 6 5 7 7 8 8 11 10 6 6 8 6 6 5 4 4 5 5 5 5 5 5 5 7 8 8 9 9 9 8 5 7 11 8 8 6 4 4 3 2 1 1 2 3 3 3 3 3 3 4 4 4 5 6 6 5 2 1
5 4 5 6 6 6 6 6 6 5 5 6 6 7 5 5 5 5 6 5 6 6 6 5 5 6 6 6 6 6 7 6 7 8 9 6 6 9 10 6 5 3 4 5 6 6 6 5 6 9 9 9 9 10 11 10 8 6 10 10 8 10 6 4 4 3 2 1 2 4 4 3 3 3 3 3 3 3 4 5 5 5 6 7 7
3 4 5 6 5 6 5 5 5 5 5 5 5 6 5 5 5 6 6 6 6 6 6 5 5 5 6 7 7 6 5 5 5 7 7 6 6 8 9 9 6 4 4 5 5 5 6 6 6 10 10 11 11 11 11 9 6 9 7 7 6 5 3 4 3 3 3 3 4 2 2 2 2 2 2 2 2 3 5 5 6 6 6 6 7
3 4 5 5 6 5 4 5 5 5 5 5 6 6 6 4 4 5 5 5 6 6 6 5 6 6 6 6 7 7 7 5 6 5 6 6 7 8 8 7 6 5 4 4 4 4 6 9 10 10 11 12 13 12 9 6 7 5 4 7 7 3 4 2 3 4 3 3 4 3 2 2 1 1 1 1 1 2 3 4 5 6 6 8 8
4 6 5 5 5 3 4 5 5 4 4 5 6 6 6 6 7 5 5 6 6 6 7 6 6 6 6 7 7 8 8 6 7 6 3 5 5 8 8 8 6 7 7 6 7 7 8 10 12 11 10 9 7 5 4 4 4 1 3 2 3 3 2 3 3 3 3 3 3 4 3 2 2 1 1 2 4 3 2 3 5 5 4 6 9
5 4 6 6 4 3 4 5 5 3 4 4 5 5 5 6 6 6 6 6 7 7 7 6 6 6 7 7 8 7 7 7 7 6 5 4 5 5 5 5 5 5 4 4 4 4 7 7 6 7 7 11 9 4 4 1 1 0 1 3 5 4 3 3 4 3 3 4 3 3 2 2 2 3 3 3 4 3 3 3 5 5 6 6 8
6 6 6 4 4 3 4 5 5 5 3 4 5 5 5 5 6 8 8 9 8 7 7 7 7 6 6 7 7 7 7 7 7 6 6 5 6 5 5 4 5 4 4 4 3 4 4 5 6 3 3 3 4 2 1 0 1 1 1 0 1 3 4 5 4 4 3 2 2 2 2 2 3 3 2 3 3 3 3 3 3 4 3 4 9
5 5 5 3 5 3 4 4 4 5 4 4 5 6 6 6 8 8 5 6 9 9 8 8 7 8 9 7 7 7 7 8 9 7 8 6 6 5 6 7 6 4 4 3 2 2 3 4 4 4 4 4 5 4 3 1 2 2 2 1 1 2 3 4 4 4 5 3 3 3 3 3 3 3 3 4 4 3 3 4 5 5 5 5 8
4 6 5 4 5 4 4 5 4 4 5 5 5 5 6 10 8 7 8 9 15 14 8 8 8 8 7 8 7 8 9 9 4 6 10 9 10 10 9 7 6 5 3 4 2 2 3 4 4 4 3 2 3 4 4 3 2 2 2 0 2 2 2 3 4 4 4 4 3 3 3 3 3 3 3 4 3 4 4 4 3 2 6 6 8
4 5 4 5 6 5 4 5 4 4 4 4 4 5 6 4 9 12 11 10 11 14 12 11 8 7 8 9 8 12 15 14 8 7 7 8 9 9 10 11 10 6 4 2 2 3 4 3 4 4 3 2 2 3 5 5 4 1 2 1 2 3 4 4 3 4 4 4 4 3 3 4 4 3 4 3 4 4 5 4 5 5 5 6 8
6 7 6 5 5 5 5 4 3 3 4 4 4 4 4 6 7 7 11 12 11 11 10 10 10 10 12 12 9 7 10 12 13 12 11 8 8 8 8 10 9 5 7 7 3 5 3 4 4 4 3 3 4 3 4 5 5 3 2 2 3 3 5 4 4 4 3 4 4 4 4 4 4 3 4 4 4 5 5 5 4 6 6 6 6
6 7 7 6 5 4 4 4 4 4 4 4 4 4 5 4 5 8 2 5 8 10 11 11 11 12 12 13 14 13 13 8 10 11 11 10 8 7 7 5 5 6 8 5 5 5 4 3 4 4 3 5 4 3 4 4 4 4 4 3 4 4 3 3 5 4 5 3 4 4 4 4 5 4 3 3 4 5 4 5 4 5 6 7 6
8 7 7 7 6 5 5 5 5 5 5 5 5 5 5 5 5 5 6 8 5 5 8 11 12 11 11 13 13 13 14 14 11 9 8 7 5 2 3 2 5 9 7 6 5 6 4 4 4 4 4 4 4 4 4 4 4 4 4 4 2 2 4 4 4 4 4 3 2 3 5 5 5 5 4 3 4 5 5 3 5 6 5 5 6
7 8 10 6 6 6 5 5 5 5 4 5 5 5 5 5 4 5 5 6 6 8 8 5 6 10 10 9 11 12 12 11 11 11 7 5 5 6 7 4 3 3 4 4 5 5 5 5 5 4 4 5 5 4 5 4 3 4 5 3 3 3 4 4 4 4 5 4 4 4 5 6 5 4 5 6 5 5 5 4 3 4 6 5 5
7 7 7 7 6 5 5 5 5 5 5 5 5 5 5 4 5 5 4 5 6 6 6 7 5 4 10 11 10 10 10 10 9 8 7 7 8 9 4 5 5 6 6 5 5 5 5 5 4 5 4 5 5 5 5 5 4 4 4 4 5 5 5 5 5 5 4 4 5 5 5 5 5 5 4 4 5 6 5 4 4 4 4 5 4
7 7 6 7 6 6 6 5 5 6 5 5 4 5 4 3 4 4 4 5 6 5 6 7 7 7 3 6 7 7 8 7 6 6 7 7 8 7 6 6 6 5 4 6 6 6 5 6 5 5 5 5 6 6 5 5 4 4 4 4 4 5 6 6 5 5 6 5 5 6 6 7 6 5 6 5 3 4 4 5 5 5 5 5 6
7 7 7 7 6 6 5 5 6 6 6 5 5 4 2 4 4 4 5 6 4 5 6 6 4 6 7 7 4 4 3 3 2 2 2 3 5 6 7 7 7 7 8 7 6 5 6 6 4 5 6 5 6 6 5 5 3 3 4 4 4 4 4 5 5 5 5 5 5 5 4 6 5 6 4 6 5 4 5 5 6 5 4 5 5
6 9 11 11 8 7 7 6 6 6 6 5 5 5 5 4 4 4 5 5 5 5 5 5 5 6 7 6 1 3 4 2 4 7 7 6 5 4 5 5 6 6 6 6 6 6 6 6 6 5 5 5 6 6 5 5 3 4 4 3 4 4 5 4 5 5 4 5 5 5 5 5 4 5 4 5 5 6 6 5 5 6 6 3 4
7 6 8 10 7 7 7 7 7 6 6 6 5 5 4 5 5 6 5 4 5 5 5 5 6 7 6 2 3 4 4 5 7 7 6 6 8 7 6 7 7 7 7 6 6 6 6 7 6 6 6 6 6 6 6 5 4 3 4 5 6 6 6 6 6 7 7 5 4 4 4 6 4 4 3 4 5 7 8 5 4 4 5 6 4
7 7 7 8 9 7 6 6 6 7 6 6 5 5 6 6 5 5 4 5 5 5 5 6 6 7 5 5 7 8 7 8 7 7 7 8 7 7 7 7 7 7 7 6 7 7 7 5 6 6 6 6 6 6 6 5 4 4 5 5 5 6 5 5 5 6 5 4 4 4 4 4 5 5 5 3 4 5 4 4 4 3 4 4 6
7 7 7 6 7 6 7 7 6 5 6 6 6 6 6 6 5 4 5 5 5 5 5 6 6 6 4 6 9 12 9 7 6 6 7 7 7 8 7 6 6 6 6 6 7 7 7 7 6 6 6 7 6 6 5 5 5 5 5 5 6 6 4 6 6 6 6 5 4 4 5 6 6 5 5 5 5 4 4 4 4 4 5 5 4
8 8 8 7 7 8 9 9 7 6 6 6 6 5 6 5 5 5 5 5 5 5 5 6 6 5 4 4 7 9 7 7 6 8 7 7 8 8 7 7 7 6 6 6 6 6 5 6 6 6 7 7 7 7 8 8 6 6 5 6 6 7 7 5 4 4 4 4 5 5 5 5 5 4 4 5 4 5 5 6 4 4 4 6 5
7 7 7 6 8 7 7 6 7 7 7 8 7 6 5 5 5 5 5 5 6 5 5 5 5 5 5 5 3 4 6 6 5 6 8 7 7 8 9 8 7 6 6 6 7 6 5 6 7 7 7 7 6 6 7 6 7 8 8 7 7 7 7 8 7 8 7 6 5 6 5 5 4 4 5 5 5 6 5 5 5 5 5 4 5
7 7 7 6 6 7 8 7 7 7 7 6 5 5 5 5 5 5 5 5 5 5 5 5 4 4 5 5 5 5 6 6 6 6 6 7 8 8 8 7 7 6 5 5 5 5 6 7 7 7 7 6 6 6 7 7 7 6 7 8 8 7 9 11 11 9 9 7 6 6 5 6 6 5 5 5 6 7 6 6 6 6 5 4 5
7 7 7 7 7 7 7 7 7 6 7 7 6 6 5 5 5 5 5 5 5 5 5 4 3 4 4 5 5 5 6 5 5 5 6 5 6 6 6 7 7 6 6 6 6 7 8 8 7 7 7 7 7 7 6 7 7 6 7 6 8 9 10 7 6 8 8 8 7 6 6 5 5 6 9 7 6 5 5 7 6 7 7 8 6
7 7 7 7 8 8 9 7 6 7 7 7 6 6 5 5 4 4 4 5 5 5 4 4 3 4 4 5 5 6 6 6 6 5 6 6 6 6 7 6 7 9 9 7 6 7 7 8 7 8 7 7 6 7 7 6 6 6 6 6 7 7 5 6 8 8 9 9 9 6 7 6 6 5 6 6 5 6 7 7 8 9 6 7 7
8 7 7 7 7 7 7 6 7 7 7 7 7 6 5 5 4 4 4 4 5 4 4 3 3 4 4 5 5 5 5 5 5 5 5 5 5 6 7 8 8 8 7 7 5 5 6 6 7 7 7 7 6 7 7 6 6 7 6 6 6 7 8 9 7 8 7 7 8 10 10 8 5 7 6 7 7 6 6 5 5 4 6 6 5
8 8 8 8 8 8 8 8 8 8 8 7 6 6 5 5 5 5 4 5 5 4 3 3 4 4 4 5 5 4 4 4 4 4 5 6 6 6 7 8 8 8 7 8 7 7 6 6 7 6 6 6 6 6 6 6 6 6 7 7 9 12 12 12 9 9 10 9 7 7 6 7 9 9 8 9 8 7 7 6 6 7 5 5 5
8 8 9 8 8 8 7 7 7 7 6 6 6 6 5 4 4 5 5 5 4 4 3 3 4 4 4 4 4 4 4 4 4 4 4 4 5 5 6 7 8 7 6 7 7 7 7 7 7 7 8 7 7 7 7 6 7 7 7 9 11 13 13 14 13 12 11 7 9 7 8 9 8 8 7 8 8 8 7 8 8 6 6 6 6
8 8 8 8 8 7 7 7 6 6 6 6 5 5 5 5 5 5 5 5 5 4 3 3 3 3 3 3 3 4 5 4 4 5 5 4 5 4 5 6 7 8 8 7 6 5 6 7 6 7 6 7 7 6 7 8 8 8 10 12 13 14 14 14 11 13 16 11 9 9 7 8 10 9 7 6 7 7 9 9 8 8 7 7 6
Wind_Direction
210 229 206 214 214 218 211 199 207 203 209 206 208 219 224 222 223 232 289 262 240 277 270 257 251 246 288 294 300 295 297 303 306 305 299 293 285 283 312 336 337 323 318 313 306 297 304 301 297 293 298 299 301 301 292 280 274 266 263 249 239 233 241 253 260 273 266 213 230 231 213 220 268 212 258 262 267 238 225 234 231 237 239 235 236
229 234 218 214 216 222 213 203 198 198 206 205 211 215 218 220 225 216 228 252 210 242 257 253 248 249 257 268 266 269 275 272 281 294 286 280 285 272 291 318 322 312 322 312 309 285 287 293 292 293 292 286 287 288 292 298 293 286 286 277 267 261 244 256 260 263 276 261 255 236 251 200 258 202 239 262 258 235 231 228 231 230 229 220 225
241 222 218 218 225 223 209 200 196 199 201 203 209 212 217 222 213 212 231 246 231 222 247 248 245 242 251 258 265 268 263 271 274 269 271 268 279 292 291 301 296 298 308 303 303 305 292 286 286 292 291 282 274 275 287 286 293 295 294 280 276 269 260 249 260 262 265 271 250 260 233 211 224 233 215 219 237 224 251 244 237 235 233 233 227
225 215 216 221 218 209 208 200 195 198 202 203 207 211 212 216 209 213 232 234 241 247 234 246 244 244 252 270 270 267 277 276 282 259 257 253 253 264 282 296 298 295 291 295 298 299 300 301 292 290 292 284 277 283 287 282 277 282 291 293 279 270 264 259 248 261 259 268 267 254 244 239 245 251 239 239 241 244 242 249 242 240 237 229 230
215 220 215 219 212 206 205 195 198 202 205 201 210 209 210 212 213 218 225 234 235 245 264 245 250 248 249 254 266 271 269 276 282 282 265 245 243 249 258 270 283 291 293 295 302 302 300 299 295 294 293 287 281 274 281 280 286 290 285 284 268 269 267 258 260 260 254 242 265 256 241 245 249 259 241 252 253 247 246 243 243 245 245 234 234
232 228 216 216 214 206 202 195 203 204 204 204 209 207 205 207 216 225 209 228 236 233 243 266 241 250 251 257 260 266 270 269 266 268 274 264 238 242 254 264 275 284 291 294 292 292 296 298 296 292 289 277 276 281 283 273 279 280 281 281 283 285 290 288 271 268 276 269 269 280 253 260 263 246 236 228 250 267 264 257 256 251 249 251 244
261 235 219 212 209 207 200 203 201 203 204 207 204 203 207 211 212 223 217 219 226 238 244 253 258 241 258 265 266 268 279 279 276 275 276 267 244 244 259 275 285 286 290 292 293 294 288 291 290 287 281 275 272 279 283 288 290 289 284 285 279 271 258 257 272 274 263 264 260 252 265 242 234 260 228 202 228 238 260 277 272 251 240 245 257
246 224 204 208 214 212 205 200 201 207 210 202 203 212 213 214 220 226 213 220 227 231 241 245 259 255 263 269 272 275 276 283 282 279 273 270 256 251 237 252 272 285 292 293 288 286 289 289 285 279 275 276 276 270 258 281 299 291 285 277 273 271 270 272 274 276 275 268 260 268 261 255 235 251 278 235 245 245 238 248 259 263 259 253 254
168 177 191 212 228 209 192 195 194 195 194 196 209 219 220 221 224 226 229 235 232 233 237 243 266 283 284 272 279 286 280 275 278 274 280 284 257 255 258 260 263 282 296 297 296 292 287 284 285 281 272 275 288 295 303 318 307 295 290 288 290 286 288 287 278 264 257 260 271 271 264 248 238 242 250 249 249 254 228 217 245 253 268 274 261
148 167 206 234 237 197 184 183 182 183 188 205 214 217 221 221 218 224 232 234 237 241 244 246 246 260 273 288 294 296 286 280 273 281 282 264 267 259 266 266 271 291 302 303 301 299 295 300 296 296 306 323 309 294 308 311 306 304 306 316 311 303 298 295 288 278 267 255 246 238 246 260 261 246 248 253 248 248 227 228 244 253 262 265 265
170 187 234 241 226 193 178 193 174 198 211 215 221 217 221 213 215 228 236 234 232 238 234 258 263 257 261 272 288 288 288 282 282 289 287 282 279 263 262 283 303 299 297 294 296 306 311 312 306 304 309 317 325 355 332 302 295 289 298 305 281 262 267 267 267 272 270 264 253 242 239 250 252 238 219 245 250 239 235 232 241 247 246 264 280
192 220 233 221 209 199 198 183 198 219 211 224 220 219 208 204 218 226 232 236 236 226 239 242 254 266 271 273 271 274 281 280 285 287 285 286 265 256 246 258 286 289 289 293 293 297 304 307 303 301 305 310 332 356 329 313 258 261 258 261 265 292 283 279 302 298 276 271 260 245 240 239 235 145 312 317 319 309 271 247 235 232 240 246 249
211 234 236 211 219 212 191 197 216 226 226 228 223 204 203 213 225 223 227 227 221 222 234 240 254 263 267 270 271 273 275 280 286 289 288 285 272 245 246 225 253 270 278 285 292 294 298 306 307 304 300 320 333 324 317 314 260 230 241 252 276 257 271 273 247 251 298 286 267 271 241 101 28 341 28 349 322 291 296 291 266 236 236 241 243
216 237 228 223 221 213 209 210 226 235 231 225 209 204 201 220 225 225 231 223 218 231 241 242 254 261 257 256 265 276 278 281 281 283 286 282 297 250 252 252 250 262 267 280 287 291 291 296 297 297 306 327 322 328 325 318 318 301 289 293 295 295 290 287 312 309 309 325 328 313 47 113 170 213 301 284 249 252 254 255 260 275 266 259 264
236 235 233 239 224 218 214 216 232 239 229 213 203 212 215 230 233 227 215 215 213 220 228 237 247 255 260 254 255 270 271 277 284 286 287 285 290 227 238 245 260 271 275 276 276 281 287 287 278 274 293 310 318 335 317 313 310 305 295 279 273 294 303 323 330 320 312 317 301 268 207 201 196 275 301 293 268 268 283 287 285 284 295 10 77
237 245 245 246 235 225 208 220 231 229 211 201 205 220 221 220 228 223 212 229 236 243 261 237 250 255 258 265 269 275 276 279 281 282 282 286 283 259 247 255 270 282 288 286 287 280 283 279 276 271 277 281 289 314 320 314 300 293 294 278 256 246 268 244 225 258 293 302 179 138 61 58 2 311 298 293 275 270 274 257 251 246 246 244 238
249 240 242 245 237 221 209 215 227 224 204 200 217 224 222 230 237 210 216 228 228 231 237 238 240 250 270 273 267 271 277 279 282 282 282 286 270 257 249 254 262 279 285 289 292 292 287 272 257 263 275 279 280 312 310 311 298 295 296 293 273 244 238 246 230 328 15 11 356 4 32 45 334 266 272 267 241 257 276 273 269 259 252 254 197
252 248 250 248 243 231 215 208 218 215 196 213 221 226 226 239 232 202 207 219 227 232 234 248 255 245 248 263 256 262 275 278 281 287 286 287 248 255 240 243 278 279 292 293 293 292 292 289 277 253 264 276 299 305 304 304 298 295 295 293 281 256 244 230 232 197 195 294 299 296 357 2 31 359 315 326 310 239 222 233 230 180 226 237 228
250 244 245 244 242 237 224 214 215 208 208 222 218 218 217 218 215 188 215 215 228 234 233 237 260 262 244 249 273 267 267 279 284 283 282 284 254 234 226 218 274 284 292 301 299 296 294 285 270 265 272 290 301 299 311 312 289 291 292 287 266 261 245 201 220 236 212 189 316 340 356 316 28 22 328 321 328 9 279 251 209 199 225 216 151
242 244 254 258 244 234 224 223 223 211 219 225 215 220 214 204 209 202 213 211 226 232 237 235 246 264 269 266 267 265 267 275 278 280 284 296 254 223 188 218 249 273 288 288 307 309 303 294 280 229 254 281 287 289 285 258 277 293 293 269 257 258 179 189 207 215 100 114 287 51 33 20 19 333 329 347 13 25 26 33 220 209 219 202 177
251 249 250 254 249 243 230 220 227 227 221 220 210 211 202 213 206 200 212 209 215 236 236 236 242 263 274 267 266 270 244 264 280 283 289 283 226 199 205 211 225 241 256 284 278 283 300 308 302 275 274 278 283 292 297 283 263 272 267 256 249 209 151 178 186 182 117 111 93 42 27 59 15 339 10 11 18 12 17 34 44 21 199 177 155
252 252 254 254 254 248 240 236 230 235 231 211 203 219 219 207 206 205 197 188 202 225 233 241 245 265 275 273 259 269 273 262 271 286 287 268 224 200 200 217 197 203 243 268 278 283 280 291 305 280 268 290 307 308 302 296 284 268 256 252 237 163 177 149 117 122 84 33 10 58 40 44 24 8 28 26 21 20 24 42 47 56 54 56 143
248 248 255 258 256 251 245 238 238 229 231 212 210 227 209 199 211 194 187 192 204 221 233 237 243 260 281 280 268 264 267 279 258 269 277 252 211 208 219 226 192 205 216 262 272 285 296 290 287 292 299 301 300 301 303 300 292 264 267 260 220 175 157 116 126 127 105 91 65 48 42 42 57 45 35 40 28 31 48 53 50 60 66 58 53
235 244 252 256 263 260 255 248 237 230 226 210 215 231 220 209 202 200 193 192 202 221 240 236 240 258 265 282 291 284 274 268 282 265 270 240 214 217 225 226 203 212 209 241 261 280 287 287 290 298 299 299 298 298 298 295 285 289 274 236 163 123 81 121 120 113 109 87 84 46 30 26 76 80 49 34 54 56 63 59 62 58 63 63 50
208 237 250 257 258 265 268 253 245 231 224 196 212 226 228 186 205 218 193 206 205 216 238 229 233 247 261 267 275 283 285 298 288 279 258 255 234 227 230 232 225 198 224 235 245 257 278 283 288 291 295 296 294 294 291 298 333 288 213 162 147 112 121 164 132 124 120 128 133 133 152 59 99 294 283 309 333 13 61 59 63 61 73 78 69
225 242 253 258 259 254 260 264 252 245 226 205 216 219 210 194 212 204 192 214 206 214 238 236 242 245 256 261 264 270 285 293 287 289 277 259 252 240 234 233 230 210 224 256 257 276 285 286 284 287 288 286 286 289 303 330 339 85 156 123 60 104 128 160 123 139 136 151 153 144 146 169 102 59 30 48 53 34 18 62 72 55 53 77 71
237 251 254 258 262 235 244 263 269 248 226 225 224 227 207 211 216 217 205 202 205 218 233 238 244 246 249 256 261 270 276 279 279 284 273 254 256 258 249 252 214 202 218 245 260 271 281 275 263 268 276 282 282 262 269 334 31 336 48 117 147 125 164 204 151 144 145 142 142 139 147 144 164 84 43 48 59 33 20 75 84 73 75 76 86
223 239 244 247 265 244 245 262 266 275 244 209 225 230 226 208 210 221 210 199 194 220 222 225 230 236 257 256 263 270 273 272 266 257 257 240 243 232 237 247 245 229 235 242 242 270 279 279 279 312 311 341 335 356 31 49 176 89 94 77 150 137 128 108 91 95 92 97 108 111 105 106 85 86 80 63 58 43 18 42 67 90 73 111 86
221 238 249 253 264 247 238 253 249 255 264 238 230 220 211 203 219 238 231 182 199 205 213 221 205 205 229 241 242 258 266 268 257 225 235 226 222 233 234 233 230 219 218 214 266 268 264 274 308 330 358 357 341 330 323 4 291 220 155 99 118 128 120 131 138 149 136 137 140 132 118 104 87 81 84 68 40 42 16 73 55 82 69 71 94
204 236 233 230 253 257 253 251 243 240 248 261 272 277 231 221 214 219 244 211 220 228 216 213 205 197 215 236 211 230 244 248 267 232 231 233 230 227 237 246 230 213 174 158 152 260 258 275 288 294 307 338 329 318 316 318 281 310 309 213 162 166 161 144 142 154 140 141 145 131 126 112 95 87 83 88 72 49 39 54 69 62 99 100 98
217 245 244 243 235 235 235 247 239 231 238 241 246 272 302 269 234 233 232 230 226 232 243 250 255 229 215 251 237 227 249 264 263 249 250 239 233 232 239 246 246 233 186 134 160 197 234 249 267 277 278 270 284 298 297 294 280 167 196 233 222 181 179 160 153 134 148 150 154 127 126 115 110 111 104 94 93 80 69 51 74 72 90 107 107
212 231 230 238 231 225 226 232 235 233 249 224 233 237 256 300 301 223 228 237 240 245 241 238 239 238 239 238 251 262 244 246 251 249 246 244 242 243 249 251 249 218 213 185 190 239 216 236 252 270 270 278 255 255 275 282 276 236 163 174 203 195 173 176 159 150 151 154 142 148 134 109 103 103 107 107 96 84 85 80 79 91 88 78 85
208 230 231 231 224 215 216 224 231 218 244 241 233 210 233 221 259 305 287 234 254 257 255 249 244 240 237 241 237 239 253 256 245 245 242 243 246 248 252 252 237 204 152 161 205 235 225 216 236 241 249 261 275 261 269 267 270 254 211 198 194 202 194 156 145 153 149 176 152 147 133 114 104 96 92 108 108 99 92 93 92 92 104 102 93
207 212 216 212 199 203 207 214 219 225 224 228 228 222 217 217 235 223 287 310 305 263 245 247 248 247 249 244 243 242 245 248 249 245 239 239 235 228 207 194 168 179 190 215 193 228 220 221 231 231 234 247 259 257 241 247 261 253 242 224 204 149 157 149 154 153 137 146 137 111 122 122 127 130 115 94 87 99 103 106 121 115 99 104 112
212 224 217 196 184 199 204 201 211 224 219 221 228 219 228 224 208 232 233 245 275 290 304 278 230 222 239 246 240 240 242 241 236 238 237 225 206 158 136 130 155 190 201 215 215 225 232 226 235 238 231 245 252 248 264 263 250 242 230 204 163 138 139 167 167 146 135 124 124 149 145 139 141 139 141 133 128 116 115 118 112 118 122 122 114
207 208 202 199 198 203 205 205 203 207 215 227 216 218 222 201 214 230 231 238 252 269 280 271 277 238 237 247 247 241 238 238 241 240 235 207 182 153 168 214 223 231 221 206 209 226 215 227 217 241 226 233 242 253 239 250 242 241 236 192 173 159 163 164 167 150 148 135 138 139 130 114 134 137 120 106 118 127 130 129 122 116 114 114 108
202 200 196 195 195 195 200 196 197 206 215 218 207 220 212 222 222 229 236 243 251 245 249 287 311 304 265 246 237 238 237 242 245 242 230 212 190 184 222 215 217 217 221 237 218 220 219 224 209 223 230 235 236 235 243 243 237 232 232 224 175 167 180 178 173 160 151 152 150 151 149 142 147 153 141 126 118 117 123 119 111 108 109 119 119
196 194 198 195 190 193 185 197 211 200 205 203 207 200 220 220 220 222 234 250 247 250 273 278 262 267 291 291 172 199 203 212 186 214 180 157 168 205 213 224 219 209 224 233 221 213 220 228 207 212 221 215 244 237 236 242 222 221 208 198 188 197 168 167 164 153 146 146 154 156 146 147 152 146 140 135 144 143 137 138 131 121 112 120 118
206 209 201 189 186 186 192 195 189 182 199 196 193 186 214 223 236 236 240 243 252 254 252 261 267 269 259 266 260 141 125 188 213 233 212 209 206 205 209 216 223 230 231 231 215 206 222 230 222 209 215 211 229 237 234 243 218 210 193 179 170 157 164 174 171 167 159 164 159 156 151 150 154 154 148 136 140 147 144 148 145 140 137 133 127
204 212 211 201 191 196 190 195 185 187 197 186 202 195 201 217 230 237 233 232 255 260 255 261 271 268 260 188 173 156 202 230 232 229 224 213 214 207 197 209 216 220 222 221 221 222 224 228 220 210 215 209 214 229 225 226 219 194 183 190 176 173 181 180 175 171 172 163 159 157 155 156 157 146 149 153 151 150 151 155 156 149 138 130 127
204 208 201 199 203 190 198 193 191 203 196 199 197 184 213 223 228 223 225 238 252 258 259 256 254 265 261 239 209 194 219 236 241 231 225 223 226 217 206 215 218 227 225 220 223 217 221 224 220 207 208 216 216 213 219 207 202 195 192 186 197 177 167 175 184 177 153 155 163 159 154 148 151 151 161 167 152 152 149 141 136 135 130 129 132
204 206 202 208 198 195 194 202 210 206 200 194 191 205 221 224 218 207 228 246 248 250 264 266 257 262 283 244 224 212 219 247 245 246 241 229 232 234 229 223 220 224 223 220 221 219 218 211 219 216 222 219 208 209 197 206 199 196 193 185 186 171 171 182 181 174 169 162 162 162 160 164 164 170 151 140 152 152 143 147 145 139 139 143 141
205 205 207 195 188 196 200 209 197 192 199 203 216 216 216 211 215 218 230 241 246 250 248 257 271 280 278 249 235 221 225 243 244 241 243 231 231 234 236 233 224 215 217 225 228 226 219 221 223 221 221 221 212 202 190 197 190 190 190 191 182 179 181 165 166 177 173 163 162 160 162 158 157 153 150 160 155 151 152 145 145 147 147 147 148
206 210 207 200 203 205 211 200 195 203 202 205 204 201 197 199 214 220 226 240 247 243 231 244 257 280 288 277 233 205 232 236 239 236 236 233 234 237 236 233 232 230 221 224 224 217 211 221 225 223 218 223 216 205 205 195 179 181 182 185 192 192 176 172 177 177 175 172 160 157 160 159 154 147 147 153 154 148 149 151 149 151 151 153 149
207 203 203 205 207 207 213 209 206 204 199 191 205 218 193 194 217 226 220 235 249 244 242 245 250 260 276 277 250 238 232 234 237 242 240 236 235 238 245 249 245 239 238 231 219 208 217 222 228 224 223 221 212 203 204 198 191 195 188 182 182 189 191 188 192 178 163 160 161 160 159 159 160 160 155 161 163 158 156 164 160 148 148 151 160
205 202 203 206 207 211 213 209 203 198 193 197 204 219 213 205 218 226 232 239 236 241 249 257 254 261 262 274 262 245 244 246 245 238 243 244 244 248 247 250 262 260 249 226 197 202 212 215 218 222 223 222 209 206 203 203 197 198 193 196 195 201 203 190 142 145 166 165 163 166 164 163 167 167 167 162 166 165 164 158 158 166 164 168 176
204 204 204 204 207 210 211 200 183 194 198 202 198 204 222 226 225 231 235 230 232 232 239 248 263 269 271 266 260 252 248 244 249 248 241 244 249 253 254 249 252 257 258 250 222 205 206 212 216 222 225 223 212 212 213 205 200 197 200 198 210 203 181 154 166 169 172 176 164 155 164 165 163 158 160 159 153 162 162 165 170 175 175 171 165
206 204 204 206 205 207 204 187 196 194 197 196 196 201 211 216 226 238 238 228 224 225 227 242 243 253 254 266 261 254 254 253 255 252 249 243 245 249 249 247 247 253 252 257 241 212 210 212 215 218 227 221 213 215 216 208 207 199 195 200 203 204 183 172 167 171 169 163 165 165 162 166 163 160 160 165 164 161 162 172 177 177 169 169 173
207 204 203 198 200 203 196 193 189 190 198 193 192 201 203 203 221 228 224 227 228 225 204 234 259 248 258 256 272 275 271 271 268 266 257 255 247 247 251 256 254 256 256 254 242 230 222 218 218 216 221 216 209 210 212 214 218 212 201 204 206 200 184 182 181 181 171 166 164 160 154 160 164 169 169 171 171 170 174 170 173 177 171 170 167
207 204 199 199 199 203 196 184 185 187 183 180 191 204 203 203 222 227 223 222 228 224 217 215 237 244 256 272 284 284 293 284 284 283 276 253 242 232 237 250 259 261 250 247 243 233 227 226 217 216 220 218 205 202 210 217 219 217 212 211 201 190 191 190 189 172 168 172 170 170 170 171 170 167 168 173 169 170 170 177 179 176 170 173 176
206 197 198 196 196 184 171 173 176 178 180 185 191 197 203 211 224 222 213 210 213 218 218 217 233 241 256 258 274 291 298 298 295 295 292 290 282 262 238 234 241 251 256 253 246 231 224 223 213 214 213 217 210 206 204 211 217 218 219 211 198 192 191 184 186 186 183 173 172 170 171 171 170 174 178 176 171 173 185 177 172 177 182 183 175